Header for Extended Forecast Station List Page

Search by: ID | Name | Date | Parm | Value | Avg | % Avg
Sort by: ID | Name | Date | Parm | Value | Avg | % Avg

Enter search or view all records.

Click on id for station plot
#IDNameDateParmValueAvg% Avg
0LYDM8KOOTENAI-LIBBY DAM03-18-2019INFLOW (KAF)3500516568
1LEOI1KOOTENAI-AT LEONIA03-18-2019DISCHARGE (KAF)2799480058
2BFEI1KOOTENAI-AT BONNERS FERRY03-18-2019STAGE (FT)MMM
3FCFM8NF FLATHEAD-NEAR COLUMBIA FALLS03-18-2019DISCHARGE (KAF)1033148470
4WGCM8MF FLATHEAD-NEAR WEST GLACIER03-18-2019DISCHARGE (KAF)1102145176
5HHWM8SF FLATHEAD-HUNGRY HORSE DAM03-18-2019INFLOW (KAF)1411185176
6CFMM8FLATHEAD-AT COLUMBIA FALLS03-18-2019DISCHARGE (KAF)2794393971
7DLGM8CLARK FORK-AT DEER LODGE03-18-2019DISCHARGE (KAF)828497
8DRMM8CLARK FORK-NR DRUMMOND03-18-2019DISCHARGE (KAF)261MM
9RCCM8ROCK CREEK-NEAR CLINTON03-18-2019DISCHARGE (KAF)21324188
10BONM8BLACKFOOT-NEAR BONNER03-18-2019DISCHARGE (KAF)64876085
11ABOM8CLARK FORK-ABOVE MISSOULA03-18-2019DISCHARGE (KAF)1167136186
12BITM8BITTERROOT-NEAR MISSOULA03-18-2019DISCHARGE (KAF)975117883
13BELM8CLARK FORK-BELOW MISSOULA03-18-2019DISCHARGE (KAF)2143257783
14STRM8ST. REGIS-NEAR ST. REGIS03-18-2019DISCHARGE (KAF)17325069
15SRGM8CLARK FORK-AT ST REGIS03-18-2019DISCHARGE (KAF)2698345578
16KERM8FLATHEAD-KERR DAM03-18-2019INFLOW (KAF)3184495264
17NOXM8CLARK FORK-NOXON RAPIDS DAM03-18-2019INFLOW (KAF)5234860761
18CABI1CLARK FORK-CABINET GORGE DAM03-18-2019INFLOW (KAF)5764907064
19PRTI1PRIEST-NEAR PRIEST RIVER03-18-2019DISCHARGE (KAF)50277465
20ALFW1PEND OREILLE-ALBENI FALLS DAM03-18-2019INFLOW (KAF)68911071864
21HOPI1PEND OREILLE-PEND OREILLE LAKE NR HOPE03-18-2019LAKE ELEVATION (FT)MMM
22COEI1COEUR D ALENE-COEUR D ALENE LAKE03-18-2019INFLOW (KAF)1871268170
23SPOW1SPOKANE-AT SPOKANE03-18-2019DISCHARGE (KAF)1708MM
24LLKW1SPOKANE-AT LONGLAKE03-18-2019INFLOW (KAF)1911316560
25SATI1ST MARIES-NEAR SANTA03-18-2019DISCHARGE (KAF)8814062
26SJMI1ST JOE-AT ST MARIES03-18-2019STAGE (FT)MMM
27CIBW1COLUMBIA-AT INTL BOUNDARY03-18-2019DISCHARGE (KAF)18966MM
28LAUW1KETTLE-AT LAURIER03-18-2019DISCHARGE (KAF)1050167963
29GCDW1COLUMBIA-GRAND COULEE DAM03-18-2019INFLOW (KAF)219393782158
30CHJW1COLUMBIA-CHIEF JOSEPH DAM03-18-2019INFLOW (KAF)185263008962
31TONW1OKANOGAN-NEAR TONASKET03-18-2019DISCHARGE (KAF)684137850
32PATW1METHOW-NEAR PATEROS03-18-2019DISCHARGE (KAF)46979559
33WELW1COLUMBIA-WELLS DAM03-18-2019INFLOW (KAF)196753261260
34CHDW1CHELAN-LAKE CHELAN DAM03-18-2019INFLOW (KAF)62590769
35RRHW1COLUMBIA-ROCKY REACH DAM03-18-2019INFLOW (KAF)200133310160
36ARDW1ENTIAT-NEAR ARDENVOIR03-18-2019DISCHARGE (KAF)12618369
37PESW1WENATCHEE-AT PESHASTIN03-18-2019DISCHARGE (KAF)977133973
38WANW1COLUMBIA-WANAPUM DAM03-18-2019INFLOW (KAF)209843867454
39PRWW1COLUMBIA-PRIEST RAPIDS DAM03-18-2019INFLOW (KAF)209823935853
40KEDW1YAKIMA-KEECHELUS LAKE03-18-2019INFLOW (KAF)9011082
41KADW1KACHESS-KACHESS DAM03-18-2019INFLOW (KAF)8210479
42EASW1YAKIMA-AT EASTON03-18-2019DISCHARGE (KAF)549458
43CLUW1CLE ELUM-CLE ELUM LAKE03-18-2019INFLOW (KAF)30836385
44TNAW1TEANAWAY-BELOW FORKS03-18-2019DISCHARGE (KAF)10912488
45UMTW1YAKIMA-AT UMTANUM03-18-2019DISCHARGE (KAF)61171985
46BUDW1BUMPING-BUMPING LAKE DAM03-18-2019INFLOW (KAF)9011082
47CLFW1NACHES-NEAR CLIFFDEL03-18-2019DISCHARGE (KAF)27835079
48RILW1TIETON-RIMROCK LAKE NEAR RIMROCK03-18-2019INFLOW (KAF)14918182
49NACW1NACHES-NEAR NACHES03-18-2019DISCHARGE (KAF)44046595
50PARW1YAKIMA-NEAR PARKER03-18-2019DISCHARGE (KAF)32551963
51KIOW1YAKIMA-AT KIONA03-18-2019DISCHARGE (KAF)57790864
52IPDI1HENRYS FORK-ISLAND PARK DAM03-18-2019INFLOW (KAF)198194102
53CHEI1FALL RIVER-NEAR CHESTER03-18-2019DISCHARGE (KAF)362321113
54ANTI1HENRYS FORK-AT ST. ANTHONY03-18-2019DISCHARGE (KAF)694619112
55TEAI1TETON-NEAR ST. ANTHONY03-18-2019DISCHARGE (KAF)321314102
56REXI1HENRYS FORK-AT REXBURG03-18-2019DISCHARGE (KAF)764727105
57JLKW4SNAKE-JACKSON LAKE AT DAM03-18-2019INFLOW (KAF)713707101
58JKSW4SNAKE-NEAR JACKSON03-18-2019DISCHARGE (KAF)14851361109
59ALPW4SNAKE-NEAR ALPINE03-18-2019DISCHARGE (KAF)18271781103
60PLDI1SF SNAKE-PALISADES DAM03-18-2019INFLOW (KAF)2551261798
61HEII1SNAKE-NEAR HEISE03-18-2019DISCHARGE (KAF)28892554113
62RIDI1WILLOW CREEK-RIRIE DAM03-18-2019INFLOW (KAF)5143118
63SIFI1SNAKE-AB EAGLE ROCK NR IDAHO FALLS03-18-2019DISCHARGE (KAF)26152276115
64SHYI1SNAKE-NEAR SHELLEY03-18-2019DISCHARGE (KAF)24442183112
65SNAI1SNAKE-AT BLACKFOOT03-18-2019DISCHARGE (KAF)20161810111
66BFTI1SNAKE-NEAR BLACKFOOT03-18-2019DISCHARGE (KAF)19711747113
67PIHI1PORTNEUF-AT POCATELLO03-18-2019DISCHARGE (KAF)8887101
68AFRI1SNAKE-AMERICAN FALLS RESERVOIR03-18-2019INFLOW (KAF)25522401106
69MILI1SNAKE-AT MILNER03-18-2019DISCHARGE (KAF)945487194
70HOTI1BRUNEAU-NEAR HOT SPRINGS03-18-2019DISCHARGE (KAF)16117890
71SWAI1SNAKE-BELOW SWAN FALLS03-18-2019DISCHARGE (KAF)26782499107
72HWRI1BIG LOST-AT HOWELL RANCH NEAR CHILLY03-18-2019DISCHARGE (KAF)163144113
73MACI1BIG LOST-MACKAY RESERVOIR NEAR MACKAY03-18-2019INFLOW (KAF)150145104
74HALI1BIG WOOD-AT HAILEY03-18-2019DISCHARGE (KAF)19821492
75MAGI1BIG WOOD-MAGIC DAM03-18-2019INFLOW (KAF)20124183
76LWRI1LITTLE WOOD-LITTLE WOOD DAM03-18-2019INFLOW (KAF)7675102
77OWYO3OWYHEE-OWYHEE DAM03-18-2019INFLOW (KAF)23233370
78ARAI1SF BOISE-ANDERSON RANCH DAM03-18-2019INFLOW (KAF)46849794
79LUCI1BOISE-LUCKY PEAK DAM03-18-2019INFLOW (KAF)1209MM
80BIGI1BOISE-AT GLENWOOD BRIDGE03-18-2019DISCHARGE (KAF)38941394
81PARI1BOISE-NEAR PARMA03-18-2019DISCHARGE (KAF)38542291
82WRMO3MALHEUR-WARM SPRINGS DAM03-18-2019INFLOW (KAF)8353157
83BERO3MALHEUR-AGENCY VALLEY DAM03-18-2019INFLOW (KAF)4646101
84BULO3BULLY CREEK-BULLY CREEK DAM03-18-2019INFLOW (KAF)356610
85VALO3MALHEUR-NEAR VALE03-18-2019DISCHARGE (KAF)6555118
86CSDI1NF PAYETTE-CASCADE DAM03-18-2019INFLOW (KAF)486485100
87DEDI1DEADWOOD-NEAR LOWMAN03-18-2019INFLOW (KAF)129126102
88EMMI1PAYETTE-NEAR EMMETT03-18-2019DISCHARGE (KAF)1099119992
89WSRI1WEISER-NEAR WEISER03-18-2019DISCHARGE (KAF)491398123
90WEII1SNAKE-AT WEISER03-18-2019DISCHARGE (KAF)4899508196
91BRNI1SNAKE-BROWNLEE DAM03-18-2019INFLOW (KAF)5390551598
92WHBI1SALMON-AT WHITEBIRD03-18-2019DISCHARGE (KAF)4474543382
93TRYO3GRANDE RONDE-TROY03-18-2019DISCHARGE (KAF)1076126385
94ANAW1SNAKE-NEAR ANATONE03-18-2019DISCHARGE (KAF)106211324480
95ORFI1CLEARWATER-AT OROFINO03-18-2019DISCHARGE (KAF)3863450486
96DWRI1NF CLEARWATER-DWORSHAK DAM03-18-2019INFLOW (KAF)2009267475
97SPDI1CLEARWATER-AT SPALDING03-18-2019DISCHARGE (KAF)4808687570
98LGDW1SNAKE-LOWER GRANITE DAM03-18-2019INFLOW (KAF)154292013877
99LGSW1SNAKE-LITTLE GOOSE DAM03-18-2019INFLOW (KAF)154292014677
100LMNW1SNAKE-LOWER MONUMENTAL DAM03-18-2019INFLOW (KAF)155602028977
101IHDW1SNAKE-ICE HARBOR DAM03-18-2019INFLOW (KAF)155602016577
102TCHW1WALLA WALLA-NEAR TOUCHET03-18-2019DISCHARGE (KAF)149138108
103MCDW1COLUMBIA-MCNARY DAM03-18-2019INFLOW (KAF)372606144661
104GIBO3UMATILLA-NEAR GIBBON03-18-2019DISCHARGE (KAF)11073151
105PDTO3UMATILLA-AT PENDLETON03-18-2019DISCHARGE (KAF)205152135
106MYKO3MCKAY CREEK-NEAR PILOT ROCK03-18-2019DISCHARGE (KAF)212681
107UMAO3UMATILLA-NEAR UMATILLA03-18-2019DISCHARGE (KAF)191105182
108MONO3NF JOHN DAY-AT MONUMENT03-18-2019DISCHARGE (KAF)595585102
109SERO3JOHN DAY-AT SERVICE CK03-18-2019DISCHARGE (KAF)81083297
110JDAO3COLUMBIA-JOHN DAY DAM03-18-2019INFLOW (KAF)394646369562
111MODO3DESCHUTES-AT MOODY NR BIGGS03-18-2019DISCHARGE (KAF)1241142087
112TDAO3COLUMBIA-THE DALLES DAM03-18-2019INFLOW (KAF)396975810068
113PITW1KLICKITAT-NEAR PITT03-18-2019DISCHARGE (KAF)33249567
114HODO3HOOD-NEAR TUCKER BRIDGE03-18-2019DISCHARGE (KAF)18323578
115UNDW1WHITE SALMON-NEAR UNDERWOOD03-18-2019DISCHARGE (KAF)22033167
116BONO3COLUMBIA-BONNEVILLE DAM03-18-2019INFLOW (KAF)404396020867